Location: Newark
(47.5989°N, 4.6950°E)
Time: 13:37:41
(UTC+00:00)

Envisat - Pass Details

Date: 20 November 2019
Orbit: 764 x 766 km, 98.1° (Epoch: 06 December)

Event Time Altitude Azimuth Distance (km) Brightness Sun altitude
Rises 16:39:46 0° 137° (SE) 3,223 6.0 -6.9°
Reaches altitude 10° 16:42:14 10° 129° (SE) 2,301 5.2 -7.3°
Maximum altitude 16:46:46 34° 65° (ENE) 1,254 3.6 -8.0°
Drops below altitude 10° 16:51:18 10° 3° (N) 2,314 5.3 -8.7°
Sets 16:53:47 0° 354° (N) 3,244 6.1 -9.1°
